パンスターズ彗星

C/2015 T2 ( PanSTARRS )

English version
Home page
Updated on May 17, 2020

---------------------------------------------------------------------

・ プロフィール

発見日 2015年10月9日
発見光度 21.8等
発見者 Pan-STARRS 1 telescope (Haleakala)

・ 写真集

・ 軌道要素

Epoch 2017 May 7.0 TT = JDT 2457880.5
T 2017 May 20.44837 TT                                  Rudenko
q   6.9353604            (2000.0)            P               Q
z  -0.0000509      Peri.   30.76245     +0.76567315     +0.05755684
 +/-0.0000010      Node    51.06045     +0.27838269     -0.92753075
e   1.0003533      Incl.  124.54726     +0.57986869     +0.36928840
From 212 observations 2015 Oct. 9-2019 Sept. 26, mean residual 0".6.

・ 光度変化

        m1 = -6.5 + 5 logΔ + 25.0 log r(t - 150)

---------------------------------------------------------------------

軌道要素はM.P.E.C. 2020-G65に掲載されたものです。
光度グラフはComet for Windowsで作成したものです。

---------------------------------------------------------------------

Copyright(C) Seiichi Yoshida (comet@aerith.net). All rights reserved.